Regional Weather Roundup
Issued by NWS

Home | Current Version | Previous Version | Text Only | Print | Product List | Glossary On
Versions: 1 2 3 4 5 6 7 8 9 10 11 12 13 14 15 16 17 18 19 20 21 22 23 24 25 26 27 28 29 30 31 32 33 34 35 36 37 38 39 40 41 42 43 44 45 46 47 48 49 50
000
ASUS44 KLUB 062010
RWRTX
WEST TEXAS WEATHER ROUNDUP
NATIONAL WEATHER SERVICE LUBBOCK TX
200 PM CST FRI MAR 06 2015

NOTE: "FAIR" INDICATES FEW OR NO CLOUDS BELOW 12,000 FEET WITH NO
SIGNIFICANT WEATHER AND/OR OBSTRUCTIONS TO VISIBILITY.

TXZ004-006>008-010-012-014-016-OKZ002-062100-
TEXAS PANHANDLE/OKLAHOMA PANHANDLE

CITY           SKY/WX    TMP DP  RH WIND       PRES   REMARKS
AMARILLO       SUNNY     58  25  28 W10       30.32
BORGER         SUNNY     60  25  26 MISG      30.31
CANADIAN       SUNNY     60  32  34 SW10      30.32F
DALHART        SUNNY     59  26  28 CALM      30.31
DUMAS          SUNNY     61  29  29 W5        30.31F
GUYMON         SUNNY     59  24  26 E6        30.29
HEREFORD       SUNNY     58  33  38 S13       30.33F
PAMPA          SUNNY     57  31  36 SW6       30.32F
PERRYTON         N/A     58  28  31 W5        30.31F
$$

TXZ026-029-035-045-048-062100-
SOUTHERN PANHANDLE/SOUTH PLAINS/ROLLING PLAINS

CITY           SKY/WX    TMP DP  RH WIND       PRES   REMARKS
CHILDRESS      SUNNY     55  27  34 SW13G22   30.38
SEMINOLE       SUNNY     54  25  33 SW5       30.38F
LUBBOCK        MOSUNNY   51  29  42 SW8       30.37
PLAINVIEW      SUNNY     51  33  51 SW14      30.34F
SNYDER         SUNNY     50  29  44 SW6       30.42F
$$

TXZ052-054-060>062-072-078-127-140-154-169-062100-
PERMIAN BASIN/CONCHO VALLEY/BIG COUNTRY/EDWARDS PLATEAU

CITY           SKY/WX    TMP DP  RH WIND       PRES   REMARKS
ABILENE        SUNNY     51  22  31 S9        30.45
BIG SPRING     SUNNY     58  31  35 S12       30.43F
BRADY          SUNNY     52  16  24 SE7       30.45F
BROWNWOOD      SUNNY     50  18  27 SW7       30.48F
JUNCTION       SUNNY     54  18  24 SE6       30.44
MIDLAND        SUNNY     51  30  44 S7        30.39
ODESSA         SUNNY     52  29  41 S9        30.39F
SAN ANGELO     SUNNY     55  24  30 CALM      30.43
SONORA         SUNNY     54  21  28 SE8       30.47F
SWEETWATER     SUNNY     51  29  43 SW6       30.45F
WINK           SUNNY     52  30  43 SE7       30.37
$$

TXZ055-058-074-075-080-082-062100-
FAR WEST/SOUTHWEST MOUNTAINS/TRANS PECOS

CITY           SKY/WX    TMP DP  RH WIND       PRES   REMARKS
ALPINE         SUNNY     58  33  37 E8        30.39F
DRYDEN           N/A     52  27  38 E8        30.40
EL PASO        MOSUNNY   58  16  19 VRB3      30.31
FORT STOCKTON  SUNNY     55  33  43 E9G17     30.37
MARFA          SUNNY     57  30  35 E7        30.35F
PECOS          SUNNY     47  38  69 E6        30.40F
PRESIDIO       FAIR      57  32  38 E6        30.32F
$$

TXZ014-016-019-021>030-083-062100
TEXAS TECH WEST TEXAS MESONET/TEXAS PANHANDLE/NORTHERN SOUTH PLAINS

CITY           SKY/WX    TMP DP  RH WIND       PRES   REMARKS
ABERNATHY 5ENE   N/A     51  33  50 SW12      30.37F
AMARILLO 9NNE    N/A     60  29  30 S2        30.30F
AMARILLO 7SSE    N/A     59  27  28 SW8       30.32F
AMHERST 1NE      N/A     54  30  39 S9        30.35F
BOOTLEG 11WNW    N/A     57  27  31 S12       30.32F
CANADIAN 6E      N/A     60  31  33 SW8       30.30F
CAPROCK CYN SP   N/A     54  35  47 S14       30.36F
CLARENDON 2WSW   N/A     53  31  42 S13       30.34F
CLAUDE 12SW      N/A     55  32  42 SW10      30.32F
DIMMITT 2NE      N/A     52  31  44 S14       30.33F
FLOYDADA 2NNE    N/A     51  32  47 SW12      30.37F
FRIONA 2NE       N/A     56  30  37 S9        30.33F
GOODLETT 3W      N/A     56  25  29 SW10      30.38F
HART 3N          N/A     51  35  55 S13       30.34F
HEREFORD 2NW     N/A     56  29  35 S12       30.32F
MCLEAN 1E        N/A     55  31  39 S13       30.32F
MEMPHIS 1NE      N/A     54  33  43 S12       30.36F
MULESHOE 2SSW    N/A     56  29  35 S10       30.34F
OLTON 6S         N/A     52  31  44 S14       30.35F
PALO DURO SP     N/A     58  31  35 S10       30.33F
PAMPA 2E         N/A     57  32  39 S8        30.32F
PLAINVIEW 1S     N/A     50  34  53 SW12      30.35F
SILVERTON 7ESE   N/A     53  31  42 SW14      30.35F
TULIA 2ENE       N/A     50  37  61 S14       30.34F
TURKEY 2WSW      N/A     54  32  43 S14       30.36F
UMBARGER 3NNE    N/A     56  32  39 SW10      30.32F
$$

TXZ033>036-039>041-045>048-062100
TEXAS TECH WEST TEXAS MESONET/SOUTH PLAINS

CITY           SKY/WX    TMP DP  RH WIND       PRES   REMARKS
AIKEN 3WSW       N/A     52  33  49 S13       30.36F
ANDREWS 2NE      N/A     54  28  35 S7        30.38F
ANTON 6SSW       N/A     52  32  46 S9        30.36F
BROWNFIELD 2S    N/A     51  28  40 S8        30.37F
DENVR CTY 7WNW   N/A     54  22  29 S6        30.35F
GAIL 2ESE        N/A     52  29  40 S7        30.39F
LAMESA 2SE       N/A     51  32  47 S8        30.39F
LEVELLAND 4S     N/A     54  27  36 S7        30.35F
LUBBOCK 3WNW     N/A     53  28  38 S7        30.37F
MORTON 1ENE      N/A     54  28  36 S8        30.35F
ODONNELL 1N      N/A     52  30  44 S6        30.38F
PLAINS 3N        N/A     55  26  33 S5        30.35F
RALLS 1SE        N/A     52  28  40 SW12      30.38F
REESE CENTER     N/A     51  30  43 SW8       30.36F
SEAGRAVES 1SW    N/A     53  28  37 S5        30.36F
SEMINOLE 2NNE    N/A     54  26  34 S8        30.37F
SLATON 2NE       N/A     52  27  38 S8        30.37F
SNYDER 3E        N/A     53  29  40 S8        30.41F
SUNDOWN 8SW      N/A     55  26  32 S7        30.35F
TAHOKA 3NNE      N/A     54  27  35 S8        30.37F
WOLFFORTH 6SSW   N/A     52  31  43 S8        30.37F
$$

TXZ031-032-036>038-042>044-062100-
TEXAS TECH WEST TEXAS MESONET/ROLLING PLAINS

CITY           SKY/WX    TMP DP  RH WIND       PRES   REMARKS
ASPERMONT 3NE    N/A     54  29  39 S8        30.42F
FLUVANNA 3WNW    N/A     51  29  44 S9        30.39F
GRAHAM 5SSW      N/A     52  29  40 S6        30.38F
GUTHRIE 10WSW    N/A     56  27  32 S10       30.39F
HASKELL 1NW      N/A     51  32  49 S9        30.43F
JAYTON 1SSE      N/A     54  27  34 S12       30.40F
KNOX CITY 3NW    N/A     54  26  34 SW10      30.43F
LK A HENRY 1NW   N/A     53  29  39 S10       30.39F
NORTHFIELD 1S    N/A     56  31  37 SW12      30.37F
ODELL 4ENE       N/A     54  32  43 S15       30.41F
PADUCAH 10SW     N/A     56  27  32 S12       30.38F
POST 1NE         N/A     55  28  35 S7        30.39F
RRING SPRGS 3N   N/A     55  29  37 SW12      30.37F
SEYMOUR 3NW      N/A     52  31  44 S12       30.44F
SPUR 1W          N/A     53  26  36 S10       30.39F
WEINERT 2NNE     N/A     52  33  46 S14       30.43F
WHITE RVR 6NE    N/A     53  28  37 SW12      30.37F
$$

TXZ052-054-060>062-072-078-127-140-154-169-062100-
TEXAS TECH WEST TEXAS MESONET/PERMIAN BASIN/
CONCHO VALLEY/BIG COUNTRY/EDWARDS PLATEAU

CITY           SKY/WX    TMP DP  RH WIND       PRES   REMARKS
COYANOSA 2N      N/A     52  33  48 SE3       30.39F
JUNCTION 1SSW    N/A     55  21  27 S2        30.45F
MERTZON 3NNE     N/A     55  28  35 S6        30.42F
SAN ANGELO 7NW   N/A     53  24  31 S7        30.43F
STRLNG CT 4WSW   N/A     53  31  42 SE7       30.42F
ST LAWRNCE 5SW   N/A     52  28  39 S8        30.40F
SWEETWATR 11SW   N/A     51  27  39 S12       30.42F
WALL 1E          N/A     55  24  30 SE6       30.44F
$$

TXZ055-058-074-075-080-082-062100-
TEXAS TECH WEST TEXAS MESONET/FAR WEST/SOUTHWEST MOUNTAINS/TRANS PECOS

CITY           SKY/WX    TMP DP  RH WIND       PRES   REMARKS
PRSMN GAP BBNP   N/A     53  32  45 NE9       30.36F
$$



USA.gov is the U.S. government's official web portal to all federal, state and local government web resources and services.